Ciampino, Italy

5:23 AM CET on January 24, 2017 (GMT +0100)
Ciampino

Weather History for LIRA - January, 2017

Change the Weather History Date:

Thursday, January 12, 2017

  Actual Average Record
Temperature  
Mean Temperature 40 °F -  
Max Temperature 51 °F 54 °F 60 °F (2007)
Min Temperature 28 °F 37 °F 28 °F (1998)
Degree Days  
Heating Degree Days 26    
Moisture  
Dew Point 36 °F    
Average Humidity 74    
Maximum Humidity 93    
Minimum Humidity 56    
Precipitation  
Precipitation 0.00 in 0.13 in - ()
Sea Level Pressure  
Sea Level Pressure 30.11 in    
Wind  
Wind Speed 6 mph ()    
Max Wind Speed 20 mph    
Max Gust Speed -    
Visibility 5.5 miles    
Events Rain    
Averages and records for this station are not official NWS values.
T = Trace of Precipitation, MM = Missing Value Source: Averaged Metar Reports

Daily Weather History Graph

Daily Weather History Graph

Search for Another Location

Airport or City:

Trip Planner

Search our weather history database for the weather conditions in past years. The results will help you decide how hot, cold, wet, or windy it might be!

Date:

Astronomy

Jan. 12, 2017 Rise Set
Actual Time 7:35 AM CET 5:00 PM CET
Civil Twilight 7:05 AM CET 5:31 PM CET
Nautical Twilight 6:30 AM CET 6:06 PM CET
Astronomical Twilight 5:57 AM CET 6:39 PM CET
Moon 5:20 PM CET (1/12) 7:11 AM CET (1/12)
Length of Visible Light 10h 26m
Length of Day
9h 24m
Full, 100% of the Moon is Illuminated
Jan 12
Full
Jan 12
Full
Jan 19
Last Quarter
Jan 28
New
Feb 4
First Quarter

Hourly Weather History & Observations

Time (CET) Temp. Windchill Dew Point Humidity Pressure Visibility Wind Dir Wind Speed Gust Speed Precip Events Conditions
12:20 AM 30.2 °F - 19.4 °F 64% 30.15 in - Variable 2.3 mph - N/A   Clear
12:50 AM 32.0 °F 27.5 °F 21.2 °F 64% 30.15 in - ESE 4.6 mph - N/A   Clear
1:20 AM 28.4 °F - 19.4 °F 69% 30.15 in - NNW 1.2 mph - N/A   Clear
1:50 AM 32.0 °F - 23.0 °F 69% 30.18 in - ENE 2.3 mph - N/A   Clear
2:20 AM 35.6 °F 29.2 °F 23.0 °F 60% 30.15 in - East 8.1 mph - N/A   Clear
2:50 AM 37.4 °F 32.8 °F 23.0 °F 56% 30.15 in - East 5.8 mph - N/A   Clear
3:20 AM 39.2 °F 34.2 °F 26.6 °F 61% 30.15 in - East 6.9 mph - N/A   Clear
3:50 AM 39.2 °F 35.9 °F 26.6 °F 61% 30.15 in - East 4.6 mph - N/A   Clear
4:20 AM 39.2 °F 35.0 °F 28.4 °F 65% 30.12 in 6.2 mi East 5.8 mph - N/A   Scattered Clouds
4:50 AM 37.4 °F 34.9 °F 28.4 °F 70% 30.12 in 6.2 mi North 3.5 mph - N/A   Mostly Cloudy
5:20 AM 39.2 °F 35.9 °F 28.4 °F 65% 30.12 in 6.2 mi NE 4.6 mph - N/A   Mostly Cloudy
5:50 AM 39.2 °F 35.0 °F 28.4 °F 65% 30.12 in 6.2 mi East 5.8 mph - N/A   Mostly Cloudy
6:20 AM 41.0 °F 37.1 °F 28.4 °F 61% 30.12 in 6.2 mi NE 5.8 mph - N/A   Scattered Clouds
6:50 AM 41.0 °F 38.0 °F 30.2 °F 65% 30.12 in 6.2 mi ENE 4.6 mph - N/A   Scattered Clouds
7:20 AM 41.0 °F 39.0 °F 30.2 °F 65% 30.15 in 6.2 mi NE 3.5 mph - N/A   Mostly Cloudy
7:50 AM 41.0 °F 37.1 °F 32.0 °F 70% 30.15 in 6.2 mi ENE 5.8 mph - N/A   Overcast
8:20 AM 41.0 °F 38.0 °F 32.0 °F 70% 30.15 in 6.2 mi NE 4.6 mph - N/A   Mostly Cloudy
8:50 AM 42.8 °F 41.1 °F 32.0 °F 66% 30.15 in 6.2 mi NNW 3.5 mph - N/A   Mostly Cloudy
9:20 AM 42.8 °F - 33.8 °F 70% 30.15 in 4.3 mi Variable 2.3 mph - N/A   Mostly Cloudy
9:50 AM 42.8 °F 41.1 °F 33.8 °F 70% 30.15 in 6.2 mi North 3.5 mph - N/A   Overcast
10:20 AM 42.8 °F 41.1 °F 32.0 °F 66% 30.15 in 4.3 mi NNW 3.5 mph - N/A   Overcast
10:50 AM 42.8 °F 41.1 °F 33.8 °F 70% 30.15 in 6.2 mi NNW 3.5 mph - N/A   Overcast
11:50 AM 44.6 °F 40.7 °F 32.0 °F 61% 30.15 in 6.2 mi NNW 6.9 mph - N/A   Overcast
12:20 PM 48.2 °F - 35.6 °F 62% 30.15 in 6.2 mi NNW 3.5 mph - N/A   Light Drizzle
12:50 PM 46.4 °F 45.2 °F 37.4 °F 71% 30.15 in 5.6 mi Variable 3.5 mph - N/A   Overcast
1:20 PM 48.2 °F - 42.8 °F 82% 30.12 in 4.3 mi SE 8.1 mph - N/A   Overcast
1:50 PM 48.2 °F - 42.8 °F 82% 30.12 in 5.0 mi SE 9.2 mph - N/A   Overcast
2:20 PM 48.2 °F - 42.8 °F 82% 30.09 in 4.3 mi SSE 12.7 mph - N/A   Overcast
2:50 PM 48.2 °F - 42.8 °F 82% 30.09 in 5.0 mi SE 12.7 mph - N/A   Overcast
3:20 PM 50.0 °F - 42.8 °F 76% 30.09 in 5.0 mi SSE 13.8 mph - N/A   Mostly Cloudy
3:50 PM 50.0 °F - 42.8 °F 76% 30.09 in 5.0 mi SSE 15.0 mph - N/A   Mostly Cloudy
4:20 PM 48.2 °F - 42.8 °F 82% 30.09 in 5.0 mi SE 13.8 mph - N/A   Mostly Cloudy
4:50 PM 48.2 °F - 42.8 °F 82% 30.09 in 5.0 mi SSE 16.1 mph - N/A   Mostly Cloudy
5:20 PM 48.2 °F - 44.6 °F 87% 30.06 in 3.7 mi SSE 19.6 mph - N/A   Mostly Cloudy
5:50 PM 50.0 °F - 42.8 °F 76% 30.06 in 5.0 mi SE 16.1 mph - N/A   Mostly Cloudy
6:20 PM 48.2 °F - 44.6 °F 87% 30.06 in 4.3 mi SE 15.0 mph - N/A Rain Light Rain
6:50 PM 48.2 °F - 44.6 °F 87% 30.09 in 5.0 mi SSE 13.8 mph - N/A Rain Light Rain
7:20 PM 48.2 °F - 46.4 °F 93% 30.06 in 3.7 mi SE 16.1 mph - N/A Rain Rain
7:50 PM 50.0 °F - 44.6 °F 82% 30.06 in 5.0 mi SE 18.4 mph - N/A Rain Light Rain
8:20 PM 50.0 °F - 44.6 °F 82% 30.06 in 5.6 mi SE 18.4 mph - N/A   Scattered Clouds
8:50 PM 50.0 °F - 46.4 °F 87% 30.06 in 6.2 mi SE 16.1 mph - N/A Rain Light Rain
9:20 PM 50.0 °F - 46.4 °F 87% 30.04 in 6.2 mi SE 15.0 mph - N/A   Scattered Clouds
9:50 PM 51.8 °F - 46.4 °F 82% 30.04 in 5.6 mi SE 13.8 mph - N/A Rain Light Rain
10:20 PM 51.8 °F - 48.2 °F 88% 30.04 in 5.6 mi SSE 12.7 mph - N/A Rain Rain
10:50 PM 51.8 °F - 48.2 °F 88% 30.04 in 6.2 mi South 10.4 mph - N/A Rain Light Rain
11:20 PM 51.8 °F - 48.2 °F 88% 30.04 in 5.6 mi SSE 11.5 mph - N/A Rain Light Rain
11:50 PM 51.8 °F - 48.2 °F 88% 30.01 in 6.2 mi SSE 6.9 mph - N/A   Mostly Cloudy